THY3HJ LTFM-LTBS

Flight info

Callsign THY3HJ
Flight time 0h 49m
Altitude 31000
Route RATVU1H/18 RATVU UT35 NUMTI UT241 DEN UW87 LAVTA UT44 ATSAL
Aircraft B789/H-SDE1E2E3FGHIJ2J3J4J5M1RWXY/LB1D1

Departure

Time 2026-04-24 22:21
Airport İstanbul Airport (LTFM)

Arrival

Time 2026-04-24 23:10
Airport Dalaman International Airport (LTBS)
Time Latitude Longitude Altitude Speed Heading
2026-04-24 21:39 41.26125 28.74895 340 ft 0 kts 251°
2026-04-24 22:07 41.26132 28.74924 334 ft 4 kts 256°
2026-04-24 22:07 41.26137 28.74959 339 ft 4 kts 265°
2026-04-24 22:07 41.26136 28.74994 337 ft 4 kts 284°
2026-04-24 22:07 41.26126 28.75022 334 ft 3 kts 333°
2026-04-24 22:08 41.26121 28.75025 334 ft 8 kts 341°
2026-04-24 22:11 41.26122 28.75025 334 ft 0 kts 341°
2026-04-24 22:12 41.26125 28.75023 334 ft 1 kts 341°
2026-04-24 22:12 41.26143 28.75015 334 ft 4 kts 341°
2026-04-24 22:12 41.26177 28.75000 335 ft 6 kts 346°
2026-04-24 22:12 41.26212 28.75013 336 ft 5 kts 36°
2026-04-24 22:13 41.26234 28.75065 336 ft 10 kts 72°
2026-04-24 22:13 41.26243 28.75174 339 ft 14 kts 87°
2026-04-24 22:13 41.26292 28.75272 336 ft 14 kts 12°
2026-04-24 22:13 41.26395 28.75275 335 ft 15 kts 359°
2026-04-24 22:14 41.26506 28.75270 337 ft 17 kts 358°
2026-04-24 22:14 41.26626 28.75269 338 ft 18 kts 359°
2026-04-24 22:14 41.26753 28.75266 334 ft 19 kts 359°
2026-04-24 22:14 41.26887 28.75263 337 ft 20 kts 359°
2026-04-24 22:15 41.27026 28.75261 335 ft 19 kts 359°
2026-04-24 22:15 41.27118 28.75262 336 ft 6 kts 14°
2026-04-24 22:15 41.27147 28.75301 335 ft 9 kts 61°
2026-04-24 22:15 41.27205 28.75363 336 ft 14 kts 12°
2026-04-24 22:16 41.27326 28.75366 337 ft 21 kts 359°
2026-04-24 22:16 41.27492 28.75362 338 ft 26 kts 359°
2026-04-24 22:16 41.27672 28.75359 339 ft 26 kts 359°
2026-04-24 22:16 41.27855 28.75354 335 ft 27 kts 359°
2026-04-24 22:17 41.28039 28.75349 337 ft 27 kts 359°
2026-04-24 22:17 41.28226 28.75345 336 ft 27 kts 359°
2026-04-24 22:17 41.28415 28.75341 339 ft 27 kts 359°
2026-04-24 22:17 41.28605 28.75337 337 ft 27 kts 359°
2026-04-24 22:18 41.28795 28.75332 335 ft 27 kts 359°
2026-04-24 22:18 41.28945 28.75330 339 ft 12 kts
2026-04-24 22:18 41.28991 28.75396 339 ft 9 kts 80°
2026-04-24 22:18 41.28993 28.75481 340 ft 9 kts 89°
2026-04-24 22:19 41.28993 28.75572 340 ft 10 kts 93°
2026-04-24 22:19 41.28966 28.75615 336 ft 5 kts 166°
2026-04-24 22:19 41.28936 28.75619 336 ft 0 kts 178°
2026-04-24 22:20 41.28912 28.75620 335 ft 17 kts 179°
2026-04-24 22:20 41.28575 28.75626 336 ft 80 kts 179°
2026-04-24 22:20 41.27805 28.75641 338 ft 138 kts 179°
2026-04-24 22:20 41.26700 28.75673 582 ft 162 kts 173°
2026-04-24 22:21 41.25614 28.75810 1419 ft 162 kts 168°
2026-04-24 22:21 41.24581 28.76521 2057 ft 172 kts 146°
2026-04-24 22:21 41.23601 28.77499 2744 ft 179 kts 144°
2026-04-24 22:21 41.22589 28.78472 3470 ft 182 kts 146°
2026-04-24 22:22 41.21494 28.79462 3888 ft 205 kts 147°
2026-04-24 22:22 41.20238 28.80585 4270 ft 230 kts 146°
2026-04-24 22:22 41.18823 28.81818 4618 ft 257 kts 151°
2026-04-24 22:22 41.17057 28.82274 5286 ft 269 kts 181°
2026-04-24 22:23 41.15155 28.82188 6134 ft 275 kts 183°
2026-04-24 22:23 41.13223 28.82024 6987 ft 282 kts 184°
2026-04-24 22:23 41.11252 28.81878 7874 ft 285 kts 182°
2026-04-24 22:23 41.09252 28.81759 8736 ft 290 kts 182°
2026-04-24 22:24 41.07221 28.81637 9624 ft 294 kts 183°
2026-04-24 22:24 41.05159 28.81504 10312 ft 304 kts 183°
2026-04-24 22:24 41.02945 28.81360 10485 ft 332 kts 183°
2026-04-24 22:24 41.00546 28.81207 10693 ft 355 kts 183°
2026-04-24 22:25 40.98080 28.81052 11553 ft 355 kts 183°
2026-04-24 22:25 40.95601 28.80818 12264 ft 359 kts 188°
2026-04-24 22:25 40.93096 28.80542 12993 ft 363 kts 182°
2026-04-24 22:25 40.90560 28.80431 13745 ft 367 kts 183°
2026-04-24 22:26 40.87995 28.80233 14419 ft 370 kts 185°
2026-04-24 22:26 40.85416 28.79958 15061 ft 374 kts 185°
2026-04-24 22:26 40.82805 28.79704 15698 ft 378 kts 184°
2026-04-24 22:26 40.80168 28.79484 16334 ft 381 kts 184°
2026-04-24 22:27 40.77510 28.79259 16965 ft 385 kts 184°
2026-04-24 22:27 40.74825 28.79014 17576 ft 388 kts 184°
2026-04-24 22:27 40.72114 28.78767 18181 ft 392 kts 184°
2026-04-24 22:27 40.69382 28.78525 18723 ft 395 kts 183°
2026-04-24 22:28 40.66685 28.78288 19217 ft 398 kts 183°
2026-04-24 22:28 40.63907 28.78041 19718 ft 401 kts 183°
2026-04-24 22:28 40.61108 28.77790 20202 ft 404 kts 183°
2026-04-24 22:28 40.58287 28.77540 20679 ft 408 kts 183°
2026-04-24 22:29 40.52589 28.77036 21601 ft 414 kts 183°
2026-04-24 22:29 40.49707 28.76781 22047 ft 416 kts 183°
2026-04-24 22:29 40.46804 28.76524 22468 ft 419 kts 183°
2026-04-24 22:30 40.43879 28.76265 22897 ft 422 kts 183°
2026-04-24 22:30 40.40935 28.76006 23301 ft 425 kts 183°
2026-04-24 22:30 40.37980 28.75745 23682 ft 428 kts 182°
2026-04-24 22:30 40.35035 28.75485 24014 ft 430 kts 182°
2026-04-24 22:31 40.32008 28.75219 24346 ft 432 kts 182°
2026-04-24 22:31 40.29045 28.74958 24666 ft 434 kts 182°
2026-04-24 22:31 40.26021 28.74693 24983 ft 436 kts 182°
2026-04-24 22:31 40.22986 28.74426 25300 ft 438 kts 182°
2026-04-24 22:32 40.19936 28.74158 25617 ft 440 kts 182°
2026-04-24 22:32 40.16879 28.73891 25925 ft 442 kts 182°
2026-04-24 22:32 40.13805 28.73621 26246 ft 443 kts 182°
2026-04-24 22:32 40.10714 28.73351 26569 ft 445 kts 182°
2026-04-24 22:33 40.07621 28.73081 26878 ft 447 kts 182°
2026-04-24 22:33 40.04509 28.72809 27216 ft 448 kts 182°
2026-04-24 22:33 40.01406 28.72538 27687 ft 446 kts 182°
2026-04-24 22:33 39.98315 28.72268 28163 ft 444 kts 183°
2026-04-24 22:34 39.95233 28.72000 28633 ft 443 kts 183°
2026-04-24 22:34 39.92205 28.71736 29135 ft 441 kts 183°
2026-04-24 22:34 39.89146 28.71470 29645 ft 439 kts 183°
2026-04-24 22:34 39.86103 28.71206 30178 ft 437 kts 183°
2026-04-24 22:35 39.83072 28.70943 30610 ft 436 kts 184°
2026-04-24 22:35 39.80045 28.70681 31024 ft 436 kts 184°
2026-04-24 22:35 39.73956 28.70153 31052 ft 434 kts 184°
2026-04-24 22:36 39.67961 28.69635 31058 ft 430 kts 185°
2026-04-24 22:36 39.61996 28.69120 31062 ft 429 kts 185°
2026-04-24 22:37 39.56034 28.68607 31061 ft 429 kts 185°
2026-04-24 22:37 39.50131 28.68099 31062 ft 427 kts 185°
2026-04-24 22:38 39.44204 28.67590 31057 ft 426 kts 186°
2026-04-24 22:38 39.38286 28.67083 31072 ft 425 kts 186°
2026-04-24 22:39 39.33388 28.66664 31063 ft 424 kts 186°
2026-04-24 22:39 39.27498 28.66161 31065 ft 424 kts 187°
2026-04-24 22:40 39.21615 28.65659 31069 ft 422 kts 187°
2026-04-24 22:40 39.15757 28.65160 31069 ft 421 kts 188°
2026-04-24 22:41 39.09924 28.64665 31056 ft 419 kts 188°
2026-04-24 22:41 39.04108 28.64170 31062 ft 419 kts 188°
2026-04-24 22:42 38.98300 28.63680 31042 ft 417 kts 189°
2026-04-24 22:42 38.92548 28.63192 31054 ft 416 kts 189°
2026-04-24 22:43 38.86788 28.62706 31040 ft 414 kts 190°
2026-04-24 22:43 38.81044 28.62220 31043 ft 414 kts 190°
2026-04-24 22:44 38.75305 28.61739 31038 ft 413 kts 190°
2026-04-24 22:44 38.69568 28.61256 31029 ft 413 kts 191°
2026-04-24 22:45 38.63842 28.60776 31026 ft 412 kts 191°
2026-04-24 22:45 38.58114 28.60328 31013 ft 414 kts 186°
2026-04-24 22:46 38.52310 28.60919 31019 ft 419 kts 182°
2026-04-24 22:46 38.46498 28.61614 31016 ft 419 kts 182°
2026-04-24 22:47 38.40686 28.62300 31007 ft 419 kts 182°
2026-04-24 22:47 38.34878 28.62988 31003 ft 419 kts 182°
2026-04-24 22:48 38.29077 28.63672 30991 ft 418 kts 182°
2026-04-24 22:48 38.23284 28.64355 30993 ft 418 kts 182°
2026-04-24 22:49 38.17520 28.65033 30978 ft 419 kts 182°
2026-04-24 22:49 38.11713 28.65716 30987 ft 419 kts 182°
2026-04-24 22:50 38.05911 28.66396 30973 ft 419 kts 182°
2026-04-24 22:50 38.00218 28.67074 30851 ft 401 kts 183°
2026-04-24 22:51 37.97428 28.67392 30327 ft 406 kts 184°
2026-04-24 22:51 37.94596 28.67710 29698 ft 410 kts 183°
2026-04-24 22:51 37.91726 28.68049 29060 ft 411 kts 182°
2026-04-24 22:51 37.88895 28.68396 28571 ft 410 kts 182°
2026-04-24 22:52 37.86052 28.68721 27898 ft 409 kts 182°
2026-04-24 22:52 37.83223 28.69044 27243 ft 407 kts 182°
2026-04-24 22:52 37.80407 28.69374 26601 ft 406 kts 182°
2026-04-24 22:52 37.77604 28.69703 25978 ft 404 kts 182°
2026-04-24 22:53 37.74810 28.70028 25364 ft 402 kts 182°
2026-04-24 22:53 37.72036 28.70343 24766 ft 398 kts 183°
2026-04-24 22:53 37.69292 28.70519 24172 ft 388 kts 184°
2026-04-24 22:53 37.66695 28.70727 23546 ft 362 kts 183°
2026-04-24 22:54 37.64254 28.70915 22830 ft 345 kts 184°
2026-04-24 22:54 37.61881 28.71068 22119 ft 337 kts 184°
2026-04-24 22:54 37.59558 28.71221 21454 ft 332 kts 184°
2026-04-24 22:54 37.57307 28.71383 20810 ft 326 kts 184°
2026-04-24 22:55 37.55059 28.71546 20165 ft 320 kts 184°
2026-04-24 22:55 37.52859 28.71701 19538 ft 314 kts 184°
2026-04-24 22:55 37.50665 28.71919 18934 ft 321 kts 174°
2026-04-24 22:55 37.48533 28.72923 18380 ft 333 kts 158°
2026-04-24 22:56 37.46495 28.74314 17738 ft 336 kts 157°
2026-04-24 22:56 37.44463 28.75761 17297 ft 327 kts 156°
2026-04-24 22:56 37.42490 28.77156 16630 ft 322 kts 157°
2026-04-24 22:56 37.40571 28.78483 16013 ft 304 kts 158°
2026-04-24 22:57 37.38683 28.79776 15872 ft 321 kts 158°
2026-04-24 22:57 37.36722 28.81131 15539 ft 319 kts 157°
2026-04-24 22:57 37.34801 28.82478 15197 ft 313 kts 157°
2026-04-24 22:57 37.32896 28.83801 14857 ft 313 kts 157°
2026-04-24 22:58 37.30986 28.85118 14515 ft 314 kts 157°
2026-04-24 22:58 37.29080 28.86436 14176 ft 310 kts 157°
2026-04-24 22:58 37.27201 28.87740 13836 ft 307 kts 157°
2026-04-24 22:58 37.25325 28.89036 13474 ft 308 kts 156°
2026-04-24 22:59 37.23444 28.90334 13127 ft 308 kts 156°
2026-04-24 22:59 37.21597 28.91611 12803 ft 307 kts 156°
2026-04-24 22:59 37.17908 28.94159 12153 ft 301 kts 156°
2026-04-24 23:00 37.16086 28.95470 11834 ft 304 kts 148°
2026-04-24 23:00 37.14502 28.97258 11420 ft 306 kts 141°
2026-04-24 23:00 37.12922 28.99020 10940 ft 299 kts 142°
2026-04-24 23:00 37.11428 29.00676 10477 ft 277 kts 142°
2026-04-24 23:01 37.10007 29.02268 10091 ft 273 kts 142°
2026-04-24 23:01 37.08614 29.03832 9653 ft 266 kts 142°
2026-04-24 23:01 37.07108 29.05052 9211 ft 253 kts 166°
2026-04-24 23:01 37.05423 29.05032 8814 ft 241 kts 204°
2026-04-24 23:02 37.04123 29.03809 8453 ft 235 kts 228°
2026-04-24 23:02 37.02833 29.02564 8017 ft 239 kts 202°
2026-04-24 23:02 37.01201 29.02110 7684 ft 241 kts 194°
2026-04-24 23:02 36.99577 29.01566 7328 ft 241 kts 202°
2026-04-24 23:03 36.98080 29.00662 6948 ft 238 kts 212°
2026-04-24 23:03 36.96707 28.99575 6562 ft 233 kts 214°
2026-04-24 23:03 36.95345 28.98518 6189 ft 228 kts 212°
2026-04-24 23:03 36.94000 28.97519 5828 ft 222 kts 215°
2026-04-24 23:04 36.92846 28.96274 5479 ft 218 kts 222°
2026-04-24 23:04 36.91687 28.95071 5127 ft 215 kts 220°
2026-04-24 23:04 36.90551 28.93890 4799 ft 207 kts 221°
2026-04-24 23:04 36.89495 28.92770 4477 ft 191 kts 221°
2026-04-24 23:05 36.88568 28.91607 4174 ft 190 kts 231°
2026-04-24 23:05 36.87721 28.90369 3901 ft 186 kts 225°
2026-04-24 23:05 36.86680 28.89431 3624 ft 183 kts 212°
2026-04-24 23:05 36.85581 28.88655 3346 ft 178 kts 209°
2026-04-24 23:06 36.84549 28.87924 3087 ft 167 kts 210°
2026-04-24 23:06 36.83550 28.87197 2822 ft 166 kts 211°
2026-04-24 23:06 36.82563 28.86474 2562 ft 163 kts 211°
2026-04-24 23:06 36.81592 28.85765 2310 ft 158 kts 210°
2026-04-24 23:07 36.80661 28.85087 2082 ft 154 kts 211°
2026-04-24 23:07 36.79734 28.84408 1832 ft 154 kts 211°
2026-04-24 23:07 36.78809 28.83732 1588 ft 155 kts 211°
2026-04-24 23:07 36.77893 28.83064 1362 ft 155 kts 210°
2026-04-24 23:08 36.76962 28.82385 1113 ft 155 kts 210°
2026-04-24 23:08 36.76031 28.81707 885 ft 155 kts 209°
2026-04-24 23:08 36.75104 28.81031 660 ft 154 kts 210°
2026-04-24 23:08 36.74170 28.80376 401 ft 152 kts 205°
2026-04-24 23:09 36.73183 28.79901 172 ft 152 kts 200°
2026-04-24 23:09 36.72183 28.79546 21 ft 140 kts 195°
2026-04-24 23:09 36.71441 28.79294 18 ft 87 kts 194°
2026-04-24 23:09 36.70946 28.79127 18 ft 56 kts 195°
2026-04-24 23:10 36.70716 28.79023 21 ft 25 kts 213°
2026-04-24 23:10 36.70589 28.78890 19 ft 20 kts 227°
2026-04-24 23:10 36.70585 28.78802 19 ft 4 kts 325°
2026-04-24 23:10 36.70613 28.78800 18 ft 7 kts
2026-04-24 23:11 36.70691 28.78826 18 ft 16 kts 14°
2026-04-24 23:11 36.70827 28.78871 18 ft 22 kts 14°
2026-04-24 23:11 36.70977 28.78921 18 ft 23 kts 16°
2026-04-24 23:11 36.71128 28.78974 18 ft 23 kts 15°
2026-04-24 23:12 36.71253 28.79018 18 ft 13 kts 16°
2026-04-24 23:12 36.71327 28.78997 18 ft 10 kts 302°
2026-04-24 23:12 36.71345 28.78908 18 ft 11 kts 281°
2026-04-24 23:12 36.71377 28.78832 19 ft 5 kts 338°
2026-04-24 23:13 36.71392 28.78834 18 ft 2 kts 16°
2026-04-24 23:13 36.71435 28.78852 18 ft 10 kts 19°
2026-04-24 23:13 36.71504 28.78878 18 ft 11 kts 16°
2026-04-24 23:13 36.71574 28.78896 19 ft 7 kts 347°
2026-04-24 23:14 36.71597 28.78861 18 ft 6 kts 293°
2026-04-24 23:14 36.71606 28.78825 18 ft 2 kts 285°
2026-04-24 23:14 36.71606 28.78821 18 ft 0 kts 285°